Change the Weather History Date:

Saturday, October 27, 2012

  Actual Average Record
Temperature  
Mean Temperature 41 °F 47 °F  
Max Temperature 51 °F 55 °F 75 °F (2014)
Min Temperature 31 °F 40 °F 22 °F (1976)
Degree Days  
Heating Degree Days 24 18  
Month to date heating degree days 349 375  
Since 1 July heating degree days 491 548  
Cooling Degree Days 0 0  
Month to date cooling degree days 0 2  
Year to date cooling degree days 925 563  
Moisture  
Dew Point 30 °F    
Average Humidity 66    
Maximum Humidity 85    
Minimum Humidity 46    
Precipitation  
Precipitation 0.00 in 0.10 in 0.90 in (1906)
Month to date precipitation 6.67 2.69  
Year to date precipitation 27.94 27.16  
Snow  
Snow 0.00 in 0.00 in 4.70 in (1967)
Month to date snowfall T 0.1  
Since 1 July snowfall T 0.1  
Since 1 September snowfall T 0.1  
Snow Depth 0.00 in    
Sea Level Pressure  
Sea Level Pressure 30.29 in    
Wind  
Wind Speed 7 mph (North)    
Max Wind Speed 18 mph    
Max Gust Speed 24 mph    
Visibility 10 miles    
Events      
T = Trace of Precipitation, MM = Missing Value Source: NWS Daily Summary

Daily Weather History Graph

Daily Weather History Graph

Search for Another Location

Airport or City:

Trip Planner

Search our weather history database for the weather conditions in past years. The results will help you decide how hot, cold, wet, or windy it might be!

Date:

Astronomy

Oct. 27, 2012 Rise Set
Actual Time 8:14 AM EDT 6:42 PM EDT
Civil Twilight 7:44 AM EDT 7:12 PM EDT
Nautical Twilight 7:11 AM EDT 7:45 PM EDT
Astronomical Twilight 6:38 AM EDT 8:18 PM EDT
Moon 5:30 PM EDT (10/27) 6:06 AM EDT (10/27)
Length of Visible Light 11h 27m
Length of Day
10h 28m
Waxing Gibbous, 96% of the Moon is Illuminated
Oct 27
Waxing Gibbous
Oct 29
Full
Nov 6
Last Quarter
Nov 13
New
Nov 20
First Quarter

Hourly Weather History & Observations

Time (EDT) Temp. Windchill Dew Point Humidity Pressure Visibility Wind Dir Wind Speed Gust Speed Precip Events Conditions
12:55 AM 39.0 °F - 30.0 °F 70% 30.30 in 10.0 mi Calm Calm - N/A   Clear
1:55 AM 34.0 °F - 28.9 °F 82% 30.29 in 10.0 mi Calm Calm - N/A   Clear
2:55 AM 36.0 °F - 28.9 °F 76% 30.30 in 10.0 mi Calm Calm - N/A   Clear
3:55 AM 37.9 °F 34.4 °F 32.0 °F 79% 30.29 in 10.0 mi North 4.6 mph - N/A   Clear
4:55 AM 36.0 °F 32.1 °F 30.9 °F 82% 30.28 in 10.0 mi North 4.6 mph - N/A   Clear
5:55 AM 36.0 °F 32.1 °F 30.9 °F 82% 30.29 in 10.0 mi North 4.6 mph - N/A   Scattered Clouds
6:55 AM 32.0 °F - 28.0 °F 85% 30.30 in 10.0 mi Calm Calm - N/A   Clear
7:55 AM 32.0 °F - 28.0 °F 85% 30.31 in 10.0 mi Calm Calm - N/A   Partly Cloudy
8:55 AM 33.1 °F - 28.9 °F 85% 30.32 in 10.0 mi Calm Calm - N/A   Partly Cloudy
9:55 AM 41.0 °F 37.1 °F 32.0 °F 70% 30.30 in 10.0 mi NNE 5.8 mph - N/A   Scattered Clouds
10:55 AM 46.0 °F 41.9 °F 28.9 °F 51% 30.31 in 10.0 mi NNE 8.1 mph - N/A   Mostly Cloudy
11:55 AM 48.0 °F - 28.9 °F 48% 30.30 in 10.0 mi NE 5.8 mph - N/A   Mostly Cloudy
12:55 PM 48.9 °F - 28.9 °F 46% 30.29 in 10.0 mi NNW 8.1 mph - N/A   Mostly Cloudy
1:55 PM 48.9 °F - 28.0 °F 44% 30.26 in 10.0 mi NNE 9.2 mph - N/A   Mostly Cloudy
2:55 PM 50.0 °F - 33.8 °F 54% 30.23 in 10.0 mi WNW 11.5 mph - N/A   Mostly Cloudy
3:55 PM 50.0 °F - 33.1 °F 52% 30.23 in 10.0 mi WNW 11.5 mph - N/A   Scattered Clouds
4:55 PM 48.9 °F - 32.0 °F 52% 30.24 in 10.0 mi NNW 16.1 mph 21.9 mph N/A   Scattered Clouds
5:55 PM 46.0 °F 39.6 °F 32.0 °F 58% 30.25 in 10.0 mi NNW 15.0 mph 24.2 mph N/A   Partly Cloudy
6:55 PM 44.1 °F 38.1 °F 30.9 °F 60% 30.27 in 10.0 mi North 11.5 mph - N/A   Partly Cloudy
7:55 PM 42.1 °F 36.1 °F 30.0 °F 62% 30.29 in 10.0 mi North 10.4 mph - N/A   Clear
8:55 PM 39.9 °F 33.4 °F 28.9 °F 65% 30.30 in 10.0 mi North 10.4 mph - N/A   Clear
9:55 PM 39.0 °F 33.4 °F 28.0 °F 65% 30.30 in 10.0 mi North 8.1 mph - N/A   Clear
10:55 PM 39.0 °F 32.8 °F 28.0 °F 65% 30.30 in 10.0 mi NNE 9.2 mph - N/A   Clear
11:55 PM 37.9 °F 32.7 °F 27.0 °F 65% 30.30 in 10.0 mi NNE 6.9 mph - N/A   Clear